Location: Zagreb
(45.8000°N, 16.0000°E)
Time: 20:57:23
(UTC+01:00)

YUBILEINY - Pass Details

Date: 01 November 2020
Orbit: 1478 x 1509 km, 82.5° (Epoch: 01 December)

Event Time Altitude Azimuth Distance (km) Brightness Sun altitude
Rises 20:17:07 0° 353° (N) 4,612 ? -37.6°
Reaches altitude 10° 20:20:14 10° 360° (N) 3,627 ? -38.1°
Enters shadow 20:24:03 27° 16° (NNE) 2,551 ? -38.8°
